Content
SEND FEEDBACK

Daily
Averages
Monthly
Summary
Canada

QUEBEC CITY, QUEBEC


Home > North America > Canada > Quebec
Elevation: 72 meters     Latitude: 46 48N     Longitude: 071 23W

WEATHER
 
SELECT A DAY
Number of Records: 197,154;   Date Range: 6/30/96 - 11/26/14
 
SHARE

PRINT THIS DATA

[ ← Previous Day ]
WEATHER ALMANAC - 1 AUGUST, 2013
[ Next Day → ]
[ °F ]   °C
Weather ElementAverageHighLow
Temperature21 °C28 °C (3:00 pm)15 °C (5:00 am)
Dewpoint14 °C19 °C (7:00 pm) (7:00 pm)
Humidity75.8 %97 % (2:00 am)38 % (5:00 pm)
Barometer948.9 hPa1015.6 hPa (1:00 am) (7:00 pm)
Wind Speed10.1 km/h27.8 km/h (6:13 pm)
Wind Gust44.4 km/h (6:13 pm)
Weather ElementAverage
Visibility35.4 km
Wind DirectionESE (115.8 °)

Weather ElementTotal
Precipitation---
Cooling Degree Days3.2 (Base 18.3)
Growing Degree Days11.5 (Base 10)
Averaged from 32 records on 1 August, 2013
WEATHER CONDITIONS BREAKOUT
WIND DIRECTION BREAKOUT
WEATHER BY HOUR - 1 AUGUST, 2013
[ °F ]   °C
Local TimeTemperatureDewpointHumidityBarometerVisibilityWind DirectionWind SpeedGust SpeedPrecipitationEventsConditions
1:00 AM17 °C16 °C94 %1015.6 hPa24.1 kmCalmMostly Cloudy
2:00 AM16.1 °C15.6 °C97 %1014.6 hPaCalm
2:00 AM18 °C16 °C88 %1015.6 hPa24.1 kmCalmMostly Cloudy
3:00 AM18 °C15 °C83 %1015.2 hPa24.1 kmNorth (350°)7.4 km/hPartly Cloudy
4:00 AM17 °C15 °C88 %1015.2 hPa24.1 kmNNE (20°)7.4 km/hPartly Cloudy
5:00 AM15 °C14.4 °C96 %1014.6 hPaNNW (340°)3.7 km/h
5:00 AM16 °C15 °C94 %1014.9 hPa24.1 kmNNE (20°)7.4 km/hPartly Cloudy
6:00 AM16 °C15 °C94 %1015.2 hPa24.1 kmNorth (10°)3.7 km/hMostly Cloudy
7:00 AM17 °C16 °C94 %1015.2 hPa48.3 kmNNE (20°)9.3 km/hMostly Cloudy
8:00 AM18.3 °C16.1 °C81 %1014.2 hPaENE (70°)7.4 km/h
8:00 AM19 °C15 °C78 %1015.2 hPa48.3 kmENE (60°)13 km/hMostly Cloudy
9:00 AM20 °C16 °C78 %1014.9 hPa48.3 kmNE (40°)11.1 km/hMostly Cloudy
10:00 AM21 °C16 °C73 %1014.2 hPa48.3 kmNE (40°)14.8 km/hMostly Cloudy
11:00 AM22.2 °C17.2 °C66 %1012.5 hPaENE (70°)7.4 km/h
11:00 AM23 °C17 °C69 %1013.2 hPa48.3 kmEast (80°)9.3 km/hOvercast
12:00 PM25 °C17 °C61 %1012.5 hPa48.3 kmENE (60°)11.1 km/hMostly Cloudy
1:00 PM26 °C17 °C57 %1011.2 hPa48.3 kmNorth (10°)7.4 km/hMostly Cloudy
2:00 PM26.1 °C16.1 °C44 %1009.5 hPaSSE (150°)16.7 km/h
2:00 PM27 °C16 °C51 %1010.2 hPa48.3 kmSSE (150°)18.5 km/hMostly Cloudy
3:00 PM28 °C16 °C48 %1009.5 hPa48.3 kmSE (140°)13 km/hMostly Cloudy
4:00 PM27 °C14 °C45 %1009.1 hPa48.3 kmSSE (160°)20.4 km/h31.5 km/hMostly Cloudy
5:00 PM26.1 °C14.4 °C38 %1007.8 hPaSSE (150°)16.7 km/h
5:00 PM27 °C14 °C45 %1008.5 hPa48.3 kmSSE (150°)16.7 km/hMostly Cloudy
6:00 PM26 °C15 °C51 %1008.5 hPa48.3 kmSSE (160°)11.1 km/hMostly Cloudy
6:13 PM25 °C-17.8 °C40.2 kmWSW (250°)27.8 km/h44.4 km/hRainLight Rain Showers
7:00 PM20 °C19 °C94 %1009.8 hPa40.2 kmWSW (250°)18.5 km/hRainLight Rain Showers
8:00 PM19.4 °C18.3 °C92 %1009.5 hPaWest (260°)7.4 km/h
8:00 PM19 °C18 °C94 %1010.2 hPa16.1 kmWSW (250°)13 km/hRainLight Rain Showers
9:00 PM19 °C18 °C94 %1009.8 hPa16.1 kmENE (70°)5.6 km/hRainLight Rain Showers
9:37 PM19 °C-17.8 °C16.1 kmEast (80°)3.7 km/hOvercast
10:00 PM19 °C18 °C94 %1009.5 hPa16.1 kmEast (80°)7.4 km/hOvercast
11:00 PM19 °C18 °C94 %1009.1 hPa16.1 kmEast (100°)7.4 km/hOvercast
Hourly data recorded from CYQB, located 0 kilometers away from Quebec City, Quebec







STORIES FROM OUR PARTNERS